Theta_e
330 324 319 315 309 307 308 299 291 289 290 286 285 286 286 292 296 293 293 296 298 313 321 325 325 322 318 316 319 323 325 319 317 313 308 321 345 343 343 345 349 350 351 354 355 355 355 356 355 355 355 355 354 354 355 355 355 355 354 354 353 353 354 354 353 354 353 352 352 351 351 350 350 349 349 349 349 349 349 349 349 349 349 350 348 347 346 344 344 343 344 343 343 344 345 344 345
323 313 308 311 309 306 302 292 285 288 283 281 286 286 287 290 295 291 294 297 304 318 325 327 328 328 327 327 327 327 323 330 330 328 335 342 343 343 346 347 349 349 352 354 355 354 354 355 355 354 354 355 354 354 355 355 355 354 354 354 354 353 353 353 353 353 353 352 352 352 351 351 350 350 349 349 349 349 349 349 349 349 349 349 349 349 349 347 344 342 342 344 345 345 345 344 344
317 308 305 308 302 300 297 293 290 282 284 280 283 287 291 293 293 294 296 296 315 325 326 325 326 325 326 325 318 319 314 333 335 337 338 343 337 339 347 349 349 351 353 354 354 354 354 354 355 354 355 354 354 355 355 355 354 354 354 354 354 353 353 353 352 352 352 351 352 352 352 352 351 351 351 351 350 349 349 348 348 348 349 349 348 348 349 348 347 345 345 344 343 345 345 345 345
308 308 302 300 302 292 293 288 282 284 283 281 283 287 289 291 292 295 308 314 324 323 321 322 321 325 323 319 321 328 328 331 337 339 336 339 339 345 347 349 352 352 354 354 353 354 354 355 354 354 354 354 354 355 355 355 355 354 354 354 354 353 353 352 352 351 351 351 351 352 352 351 351 351 351 350 349 350 349 348 348 348 348 348 348 348 348 347 345 344 344 344 345 346 346 346 345
306 310 301 296 294 295 292 288 284 282 284 284 281 283 291 292 294 300 309 314 320 320 321 322 320 327 328 326 327 318 320 336 339 343 340 343 346 347 348 350 351 352 352 353 353 354 354 355 354 353 354 354 354 354 355 355 354 355 354 354 354 353 352 352 351 351 351 351 351 351 351 351 351 350 350 351 350 350 349 348 349 347 347 347 348 347 347 347 346 345 344 344 345 346 346 345 344
300 299 303 302 299 296 291 288 287 286 290 286 287 288 290 292 297 299 304 316 317 320 322 321 320 321 324 327 329 325 335 329 338 342 343 341 345 348 349 350 351 351 352 353 353 354 353 354 353 353 353 355 354 355 355 355 355 354 354 354 354 353 352 351 350 349 350 350 350 350 350 350 350 350 350 349 349 349 348 348 348 348 348 348 348 347 347 346 345 345 345 345 346 344 344 344 343
301 297 295 298 296 292 287 282 283 285 290 290 290 292 295 295 294 296 296 313 320 322 325 324 325 324 322 326 332 336 341 342 340 342 345 344 347 348 349 349 349 349 351 352 353 353 353 353 353 353 353 354 354 355 355 354 354 354 354 354 353 353 352 350 350 349 349 350 349 349 349 349 349 350 350 349 350 349 349 349 349 348 348 348 348 347 347 346 346 346 345 343 342 344 344 344 343
308 300 296 289 288 291 288 284 285 286 288 292 292 293 296 297 296 295 295 311 312 315 323 325 324 320 319 330 322 337 343 343 342 345 345 345 346 347 348 348 347 348 350 351 352 352 355 352 352 353 354 354 354 354 354 354 354 354 354 353 353 353 351 350 350 349 349 349 349 349 349 349 349 349 350 350 349 349 349 349 349 348 347 347 347 346 346 346 346 346 347 347 346 345 344 344 344
300 297 298 291 289 288 283 285 285 287 289 291 293 296 306 301 299 297 295 300 316 321 322 323 324 315 322 329 329 337 340 343 344 345 344 344 343 345 346 346 347 348 349 349 348 351 351 351 351 352 353 354 353 354 354 353 354 354 353 353 352 352 351 350 350 350 350 350 349 349 350 349 349 349 348 348 348 349 348 348 348 347 347 347 347 347 346 345 345 345 346 346 345 345 344 344 343
297 297 291 290 285 287 283 284 286 286 289 291 292 296 296 296 296 297 295 302 318 321 323 327 325 320 328 324 329 335 337 342 343 342 343 342 342 344 345 346 347 348 347 348 346 349 348 351 348 349 352 353 353 353 353 353 352 352 352 352 351 350 350 350 350 350 350 350 350 350 350 349 349 349 348 348 348 349 349 348 347 347 346 346 347 346 346 346 345 345 344 344 344 343 343 343 343
293 292 291 290 286 284 286 282 283 288 289 292 293 295 296 295 294 294 294 310 320 321 324 328 326 325 326 327 331 341 344 342 340 338 341 340 341 343 344 346 348 348 346 348 347 347 349 348 350 348 351 351 351 352 351 351 351 351 351 351 351 350 350 350 350 350 350 350 350 350 349 349 349 348 348 348 348 348 348 348 347 347 347 347 346 346 346 346 344 343 344 343 343 343 342 342 342
292 293 289 284 283 284 282 284 285 288 291 291 291 294 295 296 296 306 314 318 319 321 322 324 322 329 325 326 330 338 341 341 339 340 340 339 339 342 345 347 348 348 347 346 348 348 346 345 349 351 350 349 345 347 350 350 351 351 351 351 350 350 350 350 350 350 350 351 351 351 350 349 349 349 348 348 348 348 348 348 347 346 346 346 345 345 346 344 343 343 343 343 343 342 342 342 342
290 287 285 285 283 285 285 286 285 293 289 288 292 297 296 295 299 311 315 320 320 320 319 321 330 327 320 325 333 338 337 340 341 340 339 338 338 342 345 346 347 347 346 347 347 345 346 346 346 349 348 350 347 347 349 351 351 346 349 350 350 350 350 350 350 350 351 351 351 350 351 350 349 349 348 347 347 347 347 347 347 346 346 345 345 345 345 344 343 343 343 342 343 342 342 342 342
291 289 288 287 284 283 285 286 285 287 284 290 291 294 297 298 298 311 321 317 316 313 319 327 329 328 325 329 329 331 336 341 342 341 339 338 338 341 344 345 345 345 345 346 347 347 345 345 344 345 348 344 342 346 351 351 347 342 344 348 349 349 349 350 350 350 350 350 350 350 351 351 350 350 349 348 348 347 347 347 347 346 346 346 345 345 345 344 343 343 342 342 342 342 342 342 342
299 290 286 284 282 284 284 287 287 284 286 290 295 295 294 301 304 311 316 316 315 321 328 330 329 323 318 326 325 330 336 340 342 342 339 338 337 338 341 343 344 344 344 345 346 346 346 347 346 345 348 345 342 346 348 345 343 342 345 349 349 349 349 349 350 350 350 350 350 350 350 350 350 349 349 348 348 347 347 347 346 346 346 345 345 345 345 344 343 343 342 342 341 342 342 342 342
295 288 286 287 283 283 286 286 286 286 288 289 295 293 294 301 305 303 307 317 319 327 326 323 327 319 324 328 328 335 337 340 341 339 338 336 335 336 338 341 341 341 342 344 344 343 343 344 342 345 346 345 346 346 343 341 345 345 348 350 350 349 350 349 350 351 350 350 350 350 350 349 346 347 348 348 348 348 347 346 346 346 346 345 345 345 345 343 343 343 342 342 342 342 342 341 341
292 289 288 280 285 284 286 286 286 286 287 289 292 294 293 295 304 318 322 323 323 321 321 321 321 327 327 328 332 336 337 340 340 338 336 333 332 332 334 336 337 338 341 342 340 342 344 343 343 341 343 345 345 340 340 340 343 346 348 349 350 350 350 350 349 350 350 349 345 343 339 336 335 336 337 341 347 346 345 346 347 347 346 346 345 345 344 344 343 343 342 342 341 341 341 341 341
294 289 282 283 280 285 287 287 288 292 291 292 294 292 293 293 309 318 321 319 318 319 320 321 327 328 330 332 336 336 338 337 338 336 334 331 330 329 330 332 333 334 337 338 340 342 342 343 343 339 340 341 340 336 337 341 342 344 341 344 345 346 347 347 344 342 346 338 343 339 338 339 335 333 337 345 340 343 344 347 347 347 346 346 346 345 344 344 343 343 342 342 342 341 339 329 331
289 285 284 284 282 287 290 290 290 292 291 292 294 292 294 294 304 308 313 313 315 315 317 320 321 327 332 333 334 335 335 336 336 335 333 331 329 327 328 329 330 332 333 335 336 339 340 340 339 339 341 338 335 336 340 341 342 341 340 340 342 345 346 344 340 341 333 334 334 337 339 337 335 336 336 338 338 341 340 344 346 347 347 347 346 345 345 344 344 344 343 342 341 338 330 326 324
290 288 285 282 287 288 289 292 293 294 294 293 293 295 295 294 298 309 311 311 313 312 314 317 318 321 327 330 332 333 334 335 336 334 333 331 330 328 327 327 329 331 332 332 334 338 340 338 338 340 340 336 337 336 339 341 340 341 341 339 339 339 341 341 341 336 334 333 333 335 335 336 335 332 344 345 344 335 335 341 343 343 345 346 346 345 345 344 343 344 342 342 336 331 327 326 326
290 289 285 288 287 290 292 293 293 294 294 293 293 291 291 292 296 312 312 311 309 311 316 318 319 322 328 331 331 332 333 334 334 334 332 331 331 329 328 328 329 330 330 332 335 337 335 336 339 336 332 334 335 334 337 340 340 342 343 340 338 340 340 339 338 336 334 333 333 335 335 336 334 334 335 336 332 332 331 332 335 335 337 338 344 338 339 340 339 336 336 334 330 330 327 325 327
290 289 287 288 288 290 293 294 292 294 295 293 290 291 293 296 310 312 311 303 302 310 316 320 323 326 329 330 332 333 333 333 333 332 331 330 329 329 328 327 328 329 330 332 334 336 335 336 337 335 334 332 333 334 338 342 341 341 342 340 339 339 339 338 337 336 334 333 333 335 336 334 335 335 335 334 331 330 331 332 332 331 332 335 339 337 336 336 335 334 334 333 332 330 328 327 328
290 288 288 289 289 292 292 294 292 292 292 292 291 294 294 295 298 302 309 304 305 309 315 320 326 328 332 333 333 332 333 332 332 331 330 328 327 326 325 326 326 328 330 332 336 334 333 334 337 337 332 333 333 334 338 343 342 343 343 341 338 337 338 337 336 335 333 332 334 336 333 331 333 336 336 335 333 331 331 332 331 331 332 334 337 337 337 337 336 334 332 332 331 331 329 328 327
291 288 287 292 290 292 293 293 292 291 292 292 292 293 292 293 293 298 307 305 307 318 319 325 326 328 332 332 333 332 332 332 331 331 328 325 322 322 325 326 329 332 331 330 331 332 331 331 335 339 334 333 332 334 338 344 342 343 344 343 339 339 337 335 335 334 333 332 335 335 336 332 332 334 334 334 331 330 331 332 330 330 332 333 335 338 338 337 335 332 331 330 331 331 331 329 327
290 288 291 291 291 292 292 291 289 290 291 293 293 292 294 293 293 303 302 309 319 320 324 325 325 326 328 331 331 332 331 330 328 326 325 324 324 326 327 328 329 330 326 327 328 331 334 330 332 338 337 333 333 334 337 342 342 342 343 342 338 341 335 334 333 332 332 332 333 336 336 331 331 332 332 333 329 330 330 331 331 330 331 332 333 334 337 337 336 333 330 330 329 329 328 328 328
289 292 291 290 292 291 290 290 289 290 291 292 293 290 293 291 294 302 306 312 319 321 323 323 322 323 325 328 330 330 329 326 324 322 321 323 325 324 324 326 327 326 327 329 328 328 331 337 337 340 338 335 334 335 337 340 340 340 341 340 338 341 335 333 331 331 332 332 333 336 335 332 332 331 331 330 329 328 330 330 331 329 329 330 332 333 334 336 336 333 331 332 331 328 329 330 326
290 289 290 291 292 292 291 290 289 290 290 289 291 289 290 298 300 291 306 318 319 320 319 320 321 320 321 322 324 325 325 323 321 320 321 323 323 323 324 325 325 326 329 328 328 328 329 327 333 337 337 336 334 335 337 338 338 336 336 334 336 338 336 335 332 330 330 331 333 336 335 334 332 331 331 330 329 328 329 329 329 328 329 329 331 332 333 334 335 333 331 331 329 328 327 328 327
290 292 292 291 290 290 290 289 289 290 292 290 291 290 291 293 296 292 300 317 320 318 317 318 318 318 317 317 318 319 321 319 318 319 320 321 321 322 323 324 324 326 328 327 327 328 328 328 329 330 332 333 334 334 337 337 336 334 334 331 331 330 333 330 329 329 334 330 332 332 332 331 333 330 330 331 332 329 329 329 328 327 326 329 331 331 332 333 333 333 333 331 328 328 328 328 329
293 294 290 287 286 290 288 289 289 290 292 290 290 292 289 291 292 294 312 318 318 317 316 316 315 314 314 315 316 316 318 316 317 318 319 322 323 324 324 325 325 325 326 326 326 328 326 327 328 329 329 330 330 334 335 335 334 334 331 330 330 332 330 328 328 329 330 330 331 330 330 330 332 330 329 333 334 330 329 329 330 328 327 328 332 332 333 332 332 330 329 328 328 329 329 328 328
293 290 289 288 285 284 288 289 290 289 292 289 292 284 282 286 290 292 316 317 316 315 314 314 313 313 313 314 314 315 315 316 316 318 321 321 322 324 324 325 326 324 325 324 326 326 327 327 328 328 328 327 333 335 334 333 332 332 331 329 332 329 328 327 329 327 330 330 330 328 328 329 330 331 331 332 334 330 328 330 331 329 328 330 331 331 331 330 329 328 328 329 330 327 326 326 327
289 289 285 284 282 283 286 288 291 291 291 289 294 285 282 285 288 289 306 317 316 313 313 312 311 312 312 311 312 314 313 315 316 318 320 321 323 324 323 323 324 324 324 323 324 327 327 326 327 326 328 328 332 333 335 332 332 333 331 329 329 327 328 328 329 331 330 329 330 329 329 330 330 332 331 331 330 329 328 329 331 331 331 328 328 330 330 328 329 328 327 326 326 326 326 324 324
285 286 281 279 283 281 287 291 289 290 291 291 291 284 285 289 290 289 314 316 315 313 312 311 310 311 311 310 312 312 312 314 316 318 320 321 323 323 323 323 323 324 323 324 325 327 326 326 328 327 329 330 331 333 331 330 332 331 330 333 329 328 327 326 327 330 332 332 332 330 330 331 329 330 331 331 330 329 328 327 328 330 330 328 327 328 328 327 327 326 326 326 324 324 324 322 324
282 285 279 283 283 281 287 290 288 290 292 292 291 282 282 289 288 295 314 315 313 312 311 310 310 310 310 311 311 310 311 312 314 318 320 321 321 323 323 323 323 324 324 324 325 326 326 326 329 327 328 329 330 330 331 330 328 327 327 329 329 327 325 324 325 326 328 328 329 329 330 332 329 329 329 330 330 328 326 325 327 328 330 328 326 325 325 326 326 325 324 325 325 324 323 323 323
278 281 283 282 285 284 284 288 291 288 291 288 290 286 285 289 288 308 312 313 311 310 310 309 310 310 310 310 310 310 310 311 313 315 318 320 322 322 323 325 324 324 325 325 325 325 325 327 328 327 327 328 330 331 329 326 326 327 327 329 331 327 325 325 325 326 325 324 325 326 328 330 329 327 328 329 327 327 326 326 326 327 327 326 326 325 323 323 323 325 323 323 324 324 322 322 323
281 280 280 282 283 284 286 286 288 291 289 288 287 286 287 286 287 303 312 312 311 310 310 309 309 309 309 310 309 309 309 310 312 315 318 319 320 322 323 324 323 324 324 325 326 325 327 328 328 328 327 327 328 327 324 324 325 325 325 325 324 324 324 324 325 324 324 324 323 325 327 328 328 327 329 331 329 327 326 327 327 327 326 325 325 324 323 324 323 322 322 321 323 323 323 323 324
283 283 283 282 284 283 285 287 289 291 288 285 286 286 286 287 288 294 307 310 310 308 308 307 307 308 308 309 308 309 309 310 313 316 319 319 321 321 322 323 323 323 323 324 324 326 326 326 327 326 325 325 324 322 324 325 325 326 324 322 322 321 320 323 321 322 323 324 326 325 325 326 328 327 329 332 331 327 326 327 325 326 326 324 324 323 322 322 322 322 322 323 323 324 326 325 324
286 284 284 284 283 285 287 288 292 290 288 286 286 287 286 286 288 293 306 307 307 307 307 306 307 308 308 308 308 309 309 309 313 316 318 319 320 322 323 323 322 322 323 324 324 325 325 325 324 322 322 322 321 321 324 325 322 320 318 319 319 316 321 319 319 317 320 323 324 326 327 326 327 328 330 332 332 329 326 326 325 325 326 324 324 323 323 323 323 323 323 324 323 322 323 327 326
287 285 285 283 284 283 288 288 288 292 289 285 285 285 285 286 287 292 303 307 306 307 306 306 308 308 308 308 308 309 308 311 314 314 316 316 318 320 321 322 322 321 323 325 325 325 324 323 323 321 321 320 321 323 324 323 321 323 320 317 316 314 316 317 317 316 317 318 319 322 326 325 326 328 331 332 332 328 326 325 325 325 325 324 324 324 323 325 324 323 323 323 325 324 324 327 325
287 285 283 285 283 284 288 287 289 291 291 283 285 285 285 287 290 291 304 307 307 309 309 309 308 307 308 309 309 309 308 309 310 313 314 316 317 319 321 321 321 323 323 324 324 324 323 322 321 320 320 319 317 319 321 320 316 318 317 315 316 313 313 314 314 315 316 315 315 317 320 322 324 325 330 332 330 328 326 325 324 325 325 326 324 324 323 322 322 322 322 321 320 321 323 325 323
285 283 284 283 282 285 284 287 289 291 289 286 285 286 288 287 289 290 292 298 298 304 306 308 309 309 309 310 310 309 308 308 310 312 313 315 316 318 319 319 321 321 322 322 323 323 323 322 319 319 319 318 317 319 320 318 318 316 316 315 315 314 314 316 313 314 314 314 314 315 316 317 319 322 326 328 327 327 326 325 324 325 325 325 325 323 323 323 323 323 323 322 321 319 318 320 324
284 285 281 281 283 283 284 285 288 289 292 288 285 283 283 285 288 289 291 293 299 303 307 306 308 309 311 310 310 310 308 308 309 311 312 313 315 316 317 319 321 322 322 322 322 322 323 320 319 319 319 317 318 320 319 318 317 315 315 314 315 314 313 311 312 311 313 318 315 313 314 315 316 317 320 324 326 323 324 325 324 323 323 322 322 322 322 323 324 324 323 322 321 320 318 319 322
282 285 288 287 284 287 285 286 286 279 285 288 286 277 279 282 284 286 288 294 297 301 305 306 308 307 308 309 310 309 309 310 310 311 313 314 315 315 316 318 321 322 322 322 323 323 322 320 319 318 318 317 317 317 318 318 317 315 313 312 310 309 309 310 309 309 309 310 310 311 311 311 312 313 315 320 324 324 323 323 323 323 322 322 321 321 321 321 321 322 321 322 320 319 320 319 317
282 286 288 288 285 286 287 287 284 279 281 288 288 281 277 279 287 289 287 290 295 299 302 305 307 308 308 309 309 309 309 309 308 310 311 312 313 315 315 317 321 322 322 323 323 322 321 320 319 318 318 316 316 317 319 318 315 315 314 313 312 311 310 308 307 308 309 309 310 309 309 310 310 312 314 317 319 320 319 320 322 322 322 322 323 321 320 320 320 322 321 320 319 319 320 317 317
281 286 286 286 286 287 287 285 284 282 284 289 285 282 279 283 284 286 287 291 293 297 299 302 306 307 308 309 310 309 310 310 310 309 311 312 313 315 315 316 320 322 322 322 322 321 321 319 318 317 318 317 316 317 317 317 315 313 312 311 312 310 310 309 309 309 310 312 308 308 308 309 310 312 314 314 316 318 316 316 318 319 319 319 321 318 318 318 320 321 322 320 319 320 320 320 319
284 288 286 286 288 287 285 285 283 283 284 282 279 285 281 278 280 286 287 288 290 292 296 300 304 307 308 309 310 310 310 310 310 310 310 311 312 313 313 314 316 318 320 322 322 320 319 318 318 316 316 316 315 317 317 316 316 313 312 312 310 309 310 311 312 313 310 309 307 306 308 308 309 310 311 313 314 316 318 315 315 316 316 317 317 314 314 315 315 316 318 319 318 317 319 320 321
289 288 288 288 287 287 284 281 284 280 279 276 280 283 281 276 277 283 286 285 287 287 292 298 302 306 308 308 308 309 309 308 309 310 309 309 310 311 311 312 314 316 317 320 319 317 316 317 317 316 314 314 314 315 315 314 314 314 312 311 311 311 312 310 309 309 308 307 306 305 306 307 308 309 310 311 312 312 313 314 312 312 312 315 315 311 311 311 312 312 313 313 313 313 314 318 318
289 286 286 285 283 281 282 280 279 280 273 276 279 280 281 279 278 284 285 288 288 286 287 289 296 302 306 307 308 308 309 309 308 307 307 307 307 308 309 312 313 313 316 319 317 315 316 317 316 315 314 314 313 313 313 313 313 313 312 312 312 311 310 309 309 308 307 306 306 305 306 306 307 308 309 309 310 310 312 314 310 311 313 316 312 309 309 309 309 309 309 310 311 311 311 311 310
288 285 282 284 282 280 280 276 277 274 272 275 279 280 282 279 278 283 285 287 288 289 290 289 292 299 305 307 307 308 309 308 307 306 305 305 306 307 307 309 311 312 315 318 315 314 315 316 317 316 316 315 314 313 313 312 312 312 313 313 312 312 311 310 309 308 307 306 305 305 305 306 306 307 307 308 309 309 311 310 312 310 310 308 308 308 308 308 308 307 307 308 307 308 308 308 306
286 284 284 280 275 272 275 274 276 274 275 283 280 281 283 278 279 285 289 289 289 289 290 291 291 295 302 306 307 306 306 306 306 305 305 306 307 309 309 308 309 311 314 315 314 314 315 316 317 316 316 316 316 315 314 314 313 313 313 313 313 312 311 310 309 309 307 307 305 305 305 305 305 307 306 307 307 307 309 308 308 308 308 308 307 306 306 306 305 305 305 304 305 305 305 305 304
284 283 279 277 272 269 269 268 270 276 278 280 282 284 280 279 284 288 289 291 290 291 291 291 291 291 296 303 303 303 303 304 304 304 307 307 307 309 310 310 311 310 314 315 314 313 315 316 316 316 317 316 317 316 315 315 315 314 314 315 314 313 311 311 310 310 308 307 306 306 305 306 306 306 306 306 307 307 308 309 308 307 306 306 306 305 305 305 305 304 304 304 303 303 303 303 302
284 284 285 282 275 273 267 272 269 274 276 278 281 282 279 281 283 289 290 291 292 296 297 297 298 298 299 301 302 302 302 301 303 304 306 307 309 310 311 313 313 313 312 315 315 314 315 315 315 317 316 316 317 316 316 316 317 316 315 315 315 313 312 312 312 312 309 307 306 306 305 305 306 306 306 306 308 306 306 306 306 306 305 306 306 307 308 307 307 305 305 304 303 302 302 303 301
282 282 285 282 280 278 279 274 276 276 277 277 281 278 279 282 288 291 291 294 296 297 297 299 299 300 300 301 301 301 301 302 304 305 307 308 309 312 310 313 313 313 311 314 315 315 314 314 314 315 314 315 316 315 315 316 316 316 315 314 315 316 315 314 313 313 311 309 307 306 305 305 305 306 305 307 306 306 306 307 308 305 305 306 306 306 306 306 305 305 304 304 304 306 302 301 301
284 284 282 283 285 284 275 275 278 273 274 275 273 280 280 283 288 290 291 294 294 296 296 298 298 299 299 299 299 300 301 302 304 306 308 309 312 313 313 312 311 310 309 313 314 316 315 314 313 313 314 315 315 315 315 316 316 315 316 316 315 316 315 315 314 313 311 309 307 306 306 305 305 305 306 308 306 306 306 306 306 305 306 306 306 307 306 305 305 306 305 304 304 304 303 301 302
284 281 282 286 288 287 280 274 271 267 268 271 276 276 277 277 277 287 290 291 293 294 293 294 296 297 298 298 299 300 300 301 302 303 303 305 308 310 309 309 308 308 308 310 312 313 314 314 314 313 314 313 315 315 315 315 314 314 315 316 317 317 316 315 314 313 312 309 307 306 306 306 306 307 308 310 307 306 306 311 306 306 306 307 307 306 306 305 305 305 304 305 304 304 304 303 303
284 282 287 286 279 280 278 277 268 270 269 269 274 275 277 279 281 284 287 287 288 290 292 293 294 296 296 297 298 300 301 301 301 300 301 301 302 304 305 306 308 308 309 310 311 313 313 313 314 314 314 314 315 315 315 315 315 314 315 316 316 317 317 316 315 315 312 310 308 306 306 307 306 308 310 309 306 306 307 306 306 306 306 307 306 306 306 305 305 304 305 304 304 304 304 303 304
286 287 285 283 282 280 279 275 277 277 268 267 273 275 275 281 281 285 286 288 288 289 289 292 293 295 296 295 297 299 300 300 300 301 300 300 301 302 303 303 306 307 306 309 310 312 312 312 313 314 314 314 314 314 314 314 316 315 314 316 317 317 317 317 315 313 312 311 309 308 307 306 307 309 308 308 306 306 307 306 306 306 306 306 306 306 306 305 304 305 306 305 305 304 303 304 304
283 282 280 281 281 282 281 281 279 276 268 263 269 270 278 282 285 286 288 288 290 289 289 291 295 296 297 297 297 298 298 299 299 300 300 300 300 301 302 305 306 306 307 309 310 310 311 311 311 313 313 313 314 314 314 314 315 313 314 314 316 316 317 316 314 313 313 312 310 309 308 309 309 308 308 308 307 306 306 306 305 307 306 306 305 305 306 305 305 305 306 306 305 304 304 304 305
282 280 281 279 278 279 277 274 278 276 275 267 267 267 275 281 289 288 287 289 290 290 290 292 294 295 295 296 297 296 298 298 299 299 299 299 300 302 303 304 305 306 306 307 307 309 309 310 310 312 313 314 314 314 313 314 313 312 313 315 316 316 316 315 313 313 313 312 311 310 310 310 310 309 309 309 308 307 307 306 306 306 306 306 305 305 305 305 305 305 306 307 305 304 304 304 304
Wind_Speed
2 2 1 2 2 2 1 2 2 2 2 4 3 1 3 1 2 4 4 4 1 1 1 2 4 2 1 4 8 7 1 10 4 9 7 1 1 7 8 11 11 10 12 10 9 11 13 14 16 17 17 17 18 17 16 16 16 16 16 15 14 14 14 14 15 14 14 15 16 16 17 17 17 17 16 16 15 16 16 16 16 17 18 18 18 18 17 16 14 13 12 12 11 12 11 12 12
2 1 0 2 2 2 2 1 3 1 4 2 7 1 4 1 0 2 7 4 3 1 4 6 6 9 12 13 9 5 4 4 1 1 0 2 8 5 6 11 12 12 10 9 9 9 10 12 16 16 17 17 17 16 15 16 16 16 16 14 14 14 14 15 14 14 14 14 15 15 16 16 17 16 16 15 14 14 15 15 16 17 17 17 18 18 18 17 15 13 13 12 12 12 12 13 13
1 1 1 1 3 2 2 3 1 1 3 2 8 7 2 0 0 5 6 6 1 3 3 2 2 4 4 2 4 1 2 1 4 3 4 6 11 3 7 10 10 11 11 9 9 9 9 12 16 16 16 17 16 16 16 15 16 16 16 15 15 14 14 15 15 14 14 14 14 14 15 15 16 16 15 14 14 14 14 14 15 16 17 17 17 17 17 16 16 15 14 13 12 12 13 13 14
2 1 4 3 0 3 2 3 4 7 4 7 4 6 4 3 3 4 4 2 5 0 2 4 5 3 2 4 2 3 5 3 2 5 5 8 2 7 8 10 10 9 9 8 9 9 9 13 17 16 17 16 16 16 16 16 16 16 16 15 15 14 14 14 14 14 14 14 14 14 14 15 15 15 14 14 14 13 13 14 14 14 15 16 17 17 16 17 15 15 14 13 13 13 13 14 14
2 0 2 2 5 0 2 1 4 3 4 5 4 4 2 3 1 3 2 0 2 1 4 2 2 6 1 5 1 2 2 4 7 3 4 3 7 7 9 10 9 10 9 8 8 9 9 18 16 17 17 17 17 16 16 16 17 16 15 15 15 15 14 14 14 14 14 14 14 14 15 15 15 15 14 14 14 13 12 13 12 13 14 15 16 16 15 15 16 15 14 14 13 14 14 13 13
3 1 3 2 1 2 5 1 0 4 7 3 1 3 2 4 2 1 2 3 2 1 1 2 2 2 4 3 1 3 1 2 4 4 6 4 9 9 10 9 9 9 9 8 8 8 10 17 16 16 17 18 18 17 17 17 17 15 15 15 15 15 15 14 14 13 14 14 13 14 14 14 14 15 14 13 13 13 12 11 13 14 15 15 15 16 14 15 14 14 15 14 14 13 13 13 12
2 3 3 3 1 3 5 3 5 6 7 4 3 6 7 3 4 2 1 2 1 2 1 1 3 2 3 1 2 2 3 2 4 3 4 7 10 9 9 7 8 9 8 8 8 8 12 17 17 17 16 16 17 17 18 18 17 15 15 15 15 15 15 14 13 13 13 13 13 14 14 14 14 15 14 13 13 13 13 12 13 14 14 15 14 14 14 13 13 13 15 14 14 14 13 11 10
0 2 1 2 1 1 1 2 5 4 4 4 3 5 9 9 2 1 2 2 2 4 1 3 2 4 1 2 2 3 5 4 6 8 10 8 10 9 8 7 8 8 7 7 7 7 15 17 17 17 17 16 16 17 17 16 15 15 15 16 14 15 14 14 13 12 12 12 13 13 14 14 14 14 14 13 13 13 13 13 14 13 14 14 14 14 13 13 12 13 14 14 13 13 13 11 10
2 4 0 4 1 2 1 4 5 3 6 4 8 7 12 11 6 1 3 3 0 1 4 2 1 2 1 6 3 2 3 4 8 11 10 10 9 8 6 7 10 8 7 7 6 7 9 14 15 15 16 15 15 16 16 17 16 16 15 15 15 14 13 12 12 11 11 11 12 12 13 13 13 13 13 13 12 13 13 14 14 13 14 13 13 13 13 12 11 12 12 12 12 12 13 12 11
1 1 2 2 4 3 1 5 1 4 4 5 4 9 9 6 4 4 4 3 5 5 1 3 2 5 6 7 3 1 2 6 9 10 9 10 10 9 8 8 9 11 9 6 6 6 7 12 13 12 13 14 15 15 16 16 16 15 15 14 14 13 12 12 11 11 10 10 11 10 11 12 12 13 13 12 12 12 12 12 13 13 13 13 13 13 12 11 10 10 11 11 11 12 12 12 12
1 4 2 3 1 2 6 4 3 6 3 4 6 9 11 6 4 1 5 4 3 6 2 5 5 8 3 4 1 2 4 6 10 10 10 9 8 8 7 6 8 10 10 9 8 8 10 9 15 13 12 12 13 15 14 14 14 14 14 14 13 13 12 12 11 11 10 10 11 11 11 12 12 13 12 12 12 11 11 11 12 12 12 12 12 11 11 10 9 9 10 11 11 10 10 11 12
1 0 1 2 3 7 4 2 3 6 7 2 3 5 1 4 0 3 8 10 3 4 3 3 6 5 6 4 1 2 6 6 6 9 9 8 7 6 7 7 9 10 10 9 5 5 8 8 9 14 13 12 9 9 11 13 13 14 14 14 13 13 12 12 11 11 11 10 10 10 11 12 12 13 12 12 11 11 11 11 11 12 12 11 10 10 10 9 9 8 9 9 10 9 8 9 10
2 1 4 3 2 1 2 0 2 3 4 3 3 6 3 1 2 6 3 6 4 8 0 2 10 2 4 3 1 3 7 6 6 9 8 7 7 6 8 8 9 9 8 7 7 7 7 7 6 6 11 13 14 11 12 12 14 13 13 13 13 13 13 12 11 11 10 10 10 10 10 11 12 12 12 12 12 12 11 11 12 12 12 11 10 10 9 9 8 7 8 9 9 8 7 7 8
3 6 5 3 1 3 3 1 0 1 3 3 2 7 5 2 1 3 8 7 4 2 1 6 5 5 4 3 0 3 6 7 7 8 7 8 7 7 8 9 8 8 7 7 7 8 6 6 6 6 10 10 7 11 13 14 14 15 10 12 13 14 13 12 11 10 10 10 10 10 10 10 11 12 12 12 12 11 11 11 11 12 11 11 10 10 10 9 8 7 6 8 8 7 7 7 8
0 2 2 3 1 1 1 1 1 2 4 2 3 7 8 2 3 6 2 9 2 1 1 2 3 0 5 8 4 7 9 10 8 8 9 9 9 7 7 8 8 6 5 7 6 5 6 5 5 7 7 8 8 7 8 11 17 17 15 11 13 13 12 12 11 11 10 10 10 9 9 10 10 11 12 12 12 12 11 11 11 11 11 10 10 10 9 9 8 6 5 7 7 7 7 8 7
3 4 2 1 1 3 1 1 1 2 5 1 4 6 4 3 4 3 1 1 2 1 2 3 2 1 1 9 2 11 10 9 7 9 9 10 9 7 7 8 7 6 5 7 6 5 3 5 4 3 5 7 8 7 8 6 13 13 14 13 13 13 13 12 11 10 10 9 10 9 7 6 7 7 10 10 12 12 11 7 11 11 11 11 10 10 9 8 7 6 5 6 7 6 7 8 7
2 4 0 2 1 2 2 2 3 1 5 4 4 7 5 3 3 2 1 3 9 4 2 0 0 1 4 1 2 15 10 8 9 11 10 8 8 7 6 6 7 6 6 7 7 6 5 6 4 4 5 5 6 7 7 6 5 11 11 13 12 11 11 11 11 11 9 9 8 7 6 5 5 4 3 1 8 4 8 10 11 11 11 10 10 10 9 8 7 6 5 6 7 7 8 9 7
1 1 3 1 3 3 4 4 6 1 1 5 8 3 4 1 2 0 3 7 3 3 4 3 4 6 2 2 8 14 11 11 10 12 10 9 7 7 7 6 7 8 7 8 8 6 7 7 6 4 4 6 6 9 5 7 6 6 4 6 6 6 6 7 5 4 7 5 9 6 3 3 3 1 0 2 3 3 4 8 10 10 10 10 10 9 8 7 6 5 5 6 8 7 7 4 4
2 1 2 5 4 3 6 3 5 0 4 4 5 4 1 2 4 1 4 1 1 1 2 2 4 5 7 9 11 14 12 11 11 11 13 13 11 12 9 7 6 6 7 6 6 7 6 8 8 4 5 8 10 10 5 7 8 5 5 5 4 6 6 6 3 5 5 4 4 4 2 3 3 2 2 1 2 5 2 3 7 9 10 10 9 9 8 7 5 5 5 6 8 7 3 3 3
2 4 3 3 7 3 4 3 4 4 1 6 8 2 2 4 0 0 3 4 1 3 2 1 1 3 7 8 11 12 12 10 10 12 12 11 10 11 10 10 10 11 10 8 8 6 6 8 9 6 7 5 2 5 3 6 7 7 6 5 4 4 4 5 4 4 5 3 4 4 3 3 3 2 4 6 5 3 2 3 3 5 8 9 9 6 7 6 6 4 4 7 5 3 3 3 4
1 1 3 1 3 1 5 4 8 7 1 3 3 3 5 4 2 2 6 5 2 4 5 6 10 10 9 9 11 11 10 10 10 10 10 10 9 8 9 10 9 7 7 9 7 6 6 7 10 10 8 8 5 3 3 4 4 4 5 6 4 3 4 4 3 3 4 5 4 4 4 3 3 3 0 3 4 2 1 3 3 4 1 1 5 4 4 3 3 2 3 4 2 2 3 3 3
2 5 4 3 2 1 6 4 6 3 3 1 3 5 4 0 2 5 7 4 5 6 7 10 4 12 14 14 12 12 11 11 10 10 10 11 11 10 5 2 8 9 8 8 9 8 7 5 9 9 5 5 2 4 3 2 1 3 5 6 5 3 4 4 4 4 4 5 4 4 4 4 4 4 2 3 3 2 2 2 3 2 2 2 3 4 4 4 3 2 3 2 2 3 3 2 2
3 3 2 4 3 3 2 1 2 1 1 2 4 2 1 1 1 1 5 4 2 3 4 4 5 6 9 12 14 12 12 11 10 11 10 8 4 8 9 10 8 9 8 2 2 4 4 7 7 7 8 7 4 3 2 1 1 2 5 6 5 5 4 5 5 4 3 4 5 5 5 4 4 4 4 4 3 2 1 2 3 2 3 3 3 4 4 3 2 2 2 2 3 3 3 2 2
1 4 1 4 4 7 4 4 3 4 4 7 2 4 5 1 3 0 3 5 5 8 0 8 10 8 8 12 12 14 12 11 10 7 4 10 14 10 14 14 8 5 6 3 6 7 1 6 9 8 7 8 7 4 3 4 4 4 5 6 5 5 6 5 5 4 4 4 4 5 5 5 5 3 3 4 4 4 2 1 3 3 3 3 3 4 4 3 3 3 3 2 2 3 3 2 2
3 3 1 4 3 5 4 4 5 5 8 8 2 4 11 2 1 3 3 4 7 3 5 10 11 9 7 8 11 10 10 8 6 5 8 11 10 9 9 11 11 4 6 5 5 5 4 4 2 3 4 3 5 4 3 2 4 4 4 4 5 7 5 5 4 4 4 4 3 4 4 4 3 3 4 4 4 4 4 3 3 2 3 3 3 3 4 3 2 2 2 2 2 2 2 2 1
4 7 1 2 4 5 5 4 6 6 4 2 0 6 9 4 2 2 1 3 0 3 7 10 12 10 9 9 9 10 9 7 5 6 7 10 11 10 5 8 11 10 3 4 4 4 5 8 3 0 2 2 4 4 2 1 4 5 4 4 4 5 4 3 3 4 4 5 4 3 4 4 5 5 4 2 3 4 4 4 4 2 2 2 3 4 4 3 3 2 2 2 2 2 3 2 3
3 4 4 4 7 4 3 3 4 2 4 1 4 4 3 3 3 4 0 1 4 7 7 5 11 10 8 7 6 5 7 7 7 6 9 9 10 9 6 6 10 15 15 5 5 5 8 9 9 4 2 3 2 4 3 1 2 3 4 3 4 3 4 4 4 2 2 3 3 3 4 3 4 4 3 3 3 4 3 3 4 3 1 1 2 3 4 3 3 3 2 2 2 4 4 3 4
3 2 1 5 5 4 5 2 8 0 4 6 6 4 0 2 2 4 3 3 6 11 6 6 6 7 8 7 7 5 5 4 5 6 9 10 8 9 8 7 10 12 13 17 10 8 9 4 7 7 7 4 2 4 4 3 4 4 3 3 3 2 3 2 3 2 3 2 3 3 3 3 2 4 5 4 3 3 3 4 6 5 5 6 1 2 4 3 3 3 2 2 4 4 4 4 4
1 1 3 6 6 4 1 4 3 5 4 4 5 1 1 1 3 2 3 5 7 9 8 6 5 5 5 6 6 5 6 5 4 5 5 6 6 8 10 8 9 8 3 4 11 12 10 7 7 5 2 2 6 3 5 5 4 4 4 3 3 2 2 2 3 3 3 2 2 3 3 2 3 4 5 6 5 4 4 5 6 6 6 5 4 4 5 5 4 3 4 3 4 4 5 5 5
1 2 1 5 6 5 3 1 2 4 2 5 6 4 5 6 8 1 3 8 8 9 7 6 4 4 4 4 5 5 4 5 5 6 6 7 7 8 10 7 7 7 7 7 5 11 9 3 6 6 6 4 6 4 5 5 4 4 2 2 0 2 2 2 1 1 1 1 1 2 2 2 3 3 4 5 5 4 3 4 4 4 4 5 4 4 5 5 5 4 3 5 4 4 5 6 7
2 1 3 0 2 3 3 1 0 2 2 5 1 5 6 7 9 7 4 8 13 9 7 5 5 4 4 4 4 4 4 2 5 4 5 6 6 6 8 6 5 4 4 8 8 9 8 7 6 5 6 6 4 6 6 4 3 3 4 1 2 2 3 2 1 1 1 1 2 2 3 3 3 3 3 6 5 4 5 5 3 2 3 6 4 2 4 4 5 5 5 6 4 5 7 10 8
2 1 3 3 2 5 10 3 4 5 1 2 3 2 7 8 8 3 8 5 7 9 8 6 6 4 4 4 4 4 4 2 3 4 5 7 7 6 9 8 6 7 8 9 5 7 12 11 11 8 6 5 6 7 2 3 4 4 4 5 4 3 3 3 2 2 3 3 3 3 4 4 3 2 3 5 5 5 4 5 5 5 7 6 3 2 2 4 5 5 3 6 6 5 8 9 5
5 2 3 0 0 4 6 0 3 5 0 0 6 4 1 1 3 2 3 9 7 9 7 7 7 6 6 6 4 4 4 3 2 4 5 6 5 6 8 9 9 9 8 7 8 5 8 7 7 8 7 7 6 4 1 0 1 2 2 5 5 4 4 2 1 0 1 1 3 4 4 5 5 4 4 5 5 4 3 5 5 4 5 6 4 4 5 4 3 5 3 2 5 5 7 9 5
2 2 1 2 1 1 2 9 2 1 4 2 1 2 4 1 3 4 4 4 7 8 8 7 7 7 6 4 4 4 4 5 6 5 6 5 5 6 7 9 10 8 8 9 7 2 8 10 7 7 6 4 5 3 2 2 2 3 4 5 4 4 3 2 1 1 3 3 5 5 5 5 5 4 4 5 5 4 5 7 5 4 4 4 4 5 1 3 2 4 5 3 3 5 5 7 5
1 0 2 2 1 2 4 1 3 1 1 4 0 5 7 4 3 4 7 7 6 5 6 8 9 7 6 5 4 4 5 7 6 4 6 5 4 4 4 6 7 7 4 8 9 7 5 7 6 6 6 5 4 3 3 3 3 4 5 5 5 4 2 2 2 3 3 4 5 4 5 5 6 3 5 5 5 5 6 6 5 4 4 5 5 4 2 3 4 4 6 5 4 3 5 6 7
3 2 1 2 2 3 2 6 5 3 3 4 5 7 5 2 2 3 3 4 7 5 3 2 3 4 5 5 4 6 7 7 3 5 5 5 5 5 4 4 4 4 3 5 7 7 5 8 8 8 8 8 6 5 5 5 4 5 5 3 4 2 2 3 2 2 3 5 5 5 5 5 5 5 5 5 5 5 6 6 6 5 4 5 5 4 3 3 4 6 5 7 7 5 4 5 5
3 2 2 3 3 6 4 4 7 1 2 6 7 7 2 4 6 8 6 6 5 6 6 5 4 6 6 5 6 8 5 4 3 5 5 5 5 4 5 5 4 3 3 4 6 5 7 9 12 13 10 11 10 8 6 7 5 4 2 3 4 0 1 2 3 2 4 4 5 5 5 4 4 4 4 5 5 5 6 5 5 5 4 4 5 5 4 4 3 5 5 4 5 5 3 3 3
1 0 0 5 2 5 5 4 3 3 5 0 1 5 4 4 4 1 4 6 9 10 7 7 9 7 5 7 8 10 4 3 5 3 4 4 3 4 3 5 5 8 6 6 7 6 5 6 11 12 10 9 10 10 8 6 4 5 5 5 4 2 3 3 4 4 2 3 4 5 5 5 4 4 5 5 5 6 6 5 5 5 4 4 4 3 2 1 4 4 4 4 3 4 3 3 1
1 1 2 1 6 5 10 3 2 3 1 3 1 4 0 3 1 1 9 13 8 10 14 13 13 9 8 7 10 9 4 5 4 4 5 5 4 5 5 5 5 7 8 8 7 7 7 8 8 9 9 8 7 8 8 6 2 2 3 3 4 4 3 2 2 2 3 5 5 4 5 6 6 4 4 5 4 4 5 6 5 4 4 4 5 4 4 3 3 4 4 4 3 3 3 2 2
3 2 1 4 3 2 6 3 1 6 2 2 2 4 1 5 1 1 3 1 2 1 2 4 8 11 12 12 9 6 5 5 7 6 6 5 5 5 5 5 5 3 4 4 6 8 8 7 7 8 8 7 7 6 7 6 6 6 6 6 5 5 4 2 3 4 5 7 7 5 5 4 5 7 6 5 4 5 5 5 5 5 5 5 6 5 4 4 3 2 3 4 4 4 2 3 3
2 4 3 2 2 4 5 4 5 2 1 3 3 5 2 5 2 1 2 1 0 1 3 4 5 5 2 3 6 8 6 5 5 5 5 7 7 6 7 6 5 7 7 8 9 8 7 8 8 8 8 8 7 8 9 9 8 7 6 7 6 6 4 4 5 6 5 4 4 7 6 4 4 5 5 6 7 6 5 6 6 5 5 4 4 4 4 3 4 4 4 5 5 5 4 2 4
1 6 8 8 4 3 4 3 4 4 1 4 0 3 1 4 3 2 4 1 2 1 6 7 7 5 5 8 11 4 4 6 7 6 6 5 6 6 6 7 7 8 9 9 10 10 8 7 6 5 6 6 8 8 10 9 8 9 7 7 6 5 4 3 3 3 3 4 3 1 5 6 5 5 5 6 6 5 5 5 5 5 4 4 4 4 4 3 3 4 4 5 4 2 4 4 3
2 5 9 7 4 3 1 3 2 2 3 3 1 4 1 6 3 1 4 2 0 0 4 5 5 6 7 10 6 6 7 5 4 4 4 6 6 7 7 9 10 10 11 9 8 9 8 8 7 5 7 6 6 7 8 9 7 6 7 7 7 7 6 0 1 1 3 3 3 5 4 4 5 4 5 5 5 5 6 5 5 5 5 5 4 5 4 5 4 4 3 5 4 5 5 4 6
2 2 4 5 5 1 1 3 2 2 1 2 5 4 5 1 1 2 3 1 0 1 4 4 6 7 9 9 7 6 7 6 7 5 5 5 6 9 10 9 10 11 9 8 8 8 10 9 8 4 6 7 5 7 7 8 8 6 7 5 5 5 4 4 2 3 3 3 6 5 4 4 4 3 5 5 4 5 6 6 5 5 5 5 5 5 5 4 3 2 3 3 4 4 5 6 6
3 3 6 5 2 2 5 2 2 0 1 2 4 5 3 1 4 3 2 4 0 4 5 6 7 8 8 9 9 7 7 5 4 6 6 7 8 6 5 7 6 5 6 9 7 2 8 14 16 14 9 4 5 6 8 6 8 8 8 7 5 2 4 4 3 3 4 3 6 4 5 4 5 5 5 5 5 5 5 6 5 5 5 3 3 4 4 4 5 5 5 5 5 4 4 5 7
3 5 4 7 7 6 3 3 2 2 4 2 3 3 2 2 3 4 3 2 1 5 9 10 9 9 10 10 8 7 5 4 5 6 5 4 4 4 3 2 3 4 3 3 11 13 13 13 10 7 7 6 4 2 6 5 6 8 8 7 8 6 5 4 4 5 3 3 5 3 3 5 4 5 5 4 5 5 5 5 5 5 4 4 3 5 5 5 4 5 4 5 5 6 4 5 6
5 5 6 5 8 4 3 7 2 3 1 3 3 3 2 1 2 7 4 2 2 3 5 5 5 6 7 8 8 9 8 5 5 5 4 3 3 4 3 3 0 1 3 10 11 10 8 9 10 10 9 7 9 9 4 4 4 5 7 7 9 9 6 7 7 4 4 4 5 3 4 4 3 5 4 4 5 5 5 5 5 4 3 4 5 5 5 5 5 5 5 6 6 7 6 7 6
4 1 3 4 3 6 3 4 5 3 2 3 2 1 1 3 2 1 5 5 4 4 6 5 9 11 12 11 10 10 8 4 5 5 5 5 7 7 8 8 8 9 8 8 9 9 8 6 7 10 10 12 11 10 9 7 6 3 2 7 8 8 8 7 8 7 5 6 4 4 2 4 4 4 3 5 5 4 5 5 4 4 5 5 5 5 5 5 5 5 5 6 6 6 6 7 7
6 6 6 6 2 3 2 3 1 2 3 0 2 1 2 2 3 1 6 5 5 4 6 7 6 10 11 10 8 3 2 4 5 6 6 6 7 8 7 5 5 6 8 5 2 9 9 7 7 10 10 11 11 8 5 5 4 3 2 1 6 6 7 7 7 6 4 6 5 5 4 4 4 4 2 4 2 3 5 6 4 5 4 4 5 5 5 5 5 5 6 6 6 6 6 7 7
5 4 5 5 2 1 2 1 0 3 5 3 1 1 1 3 4 1 6 7 5 5 5 7 8 7 6 3 2 3 3 4 6 7 7 8 8 8 4 1 1 3 12 8 1 2 5 8 8 13 8 10 13 13 9 6 5 3 2 0 2 5 6 6 6 7 5 4 5 5 5 5 5 4 3 3 3 2 2 4 4 4 4 4 4 5 5 4 5 6 5 6 6 5 6 7 8
6 3 9 8 8 4 2 3 3 6 6 2 3 1 3 3 2 4 3 6 5 3 3 2 1 1 3 5 5 4 5 4 6 7 7 7 7 7 4 6 6 5 7 7 7 7 6 8 11 17 17 7 3 7 10 10 7 5 3 3 1 2 3 3 3 3 5 5 4 5 3 3 5 3 4 2 1 2 3 4 4 5 4 4 4 5 5 5 5 6 6 7 6 5 7 7 6
0 3 5 7 5 6 2 3 3 2 2 2 1 2 1 1 1 4 2 3 5 5 6 6 7 5 4 5 5 4 5 6 7 8 8 8 8 1 10 8 8 6 6 8 9 8 8 8 10 11 10 9 10 12 12 14 11 8 2 3 5 4 2 3 2 1 2 3 5 6 5 3 3 3 1 1 1 2 3 4 3 3 3 3 4 5 5 6 6 7 6 6 6 4 7 7 6
3 4 4 3 2 10 6 2 2 2 4 3 1 3 3 6 1 4 6 6 5 6 7 7 6 5 7 6 5 4 4 5 7 9 9 10 10 14 14 11 7 5 5 8 9 8 8 8 7 7 8 10 12 13 12 10 9 8 6 4 1 3 2 3 1 5 4 4 4 4 6 4 3 2 2 1 0 0 1 4 4 3 2 2 3 3 4 4 4 6 6 6 6 5 7 8 6
7 1 5 2 3 6 7 3 3 3 4 3 3 0 4 3 2 6 8 7 7 7 7 5 6 7 7 3 3 4 4 3 4 4 2 1 1 5 4 4 3 3 4 5 7 7 8 10 11 12 12 14 12 11 11 9 10 10 8 6 1 1 3 5 6 6 3 4 4 4 3 5 3 3 3 2 1 1 0 1 2 2 1 1 2 2 3 3 4 4 4 4 4 5 6 5 6
4 3 4 4 1 1 2 6 1 2 0 1 1 1 3 1 2 7 10 7 9 7 7 6 7 7 6 5 5 5 4 6 6 5 5 4 3 3 3 3 4 3 4 4 4 6 7 8 11 14 16 14 12 8 8 9 9 9 5 4 4 6 8 6 5 7 4 5 5 5 5 5 4 4 4 3 2 1 1 1 1 2 1 1 2 2 2 3 3 5 3 4 2 3 5 5 4
3 3 4 1 3 2 4 4 5 7 2 3 2 2 2 1 1 5 8 7 7 6 5 4 3 5 4 4 4 4 5 6 4 4 3 3 5 5 4 4 4 4 3 4 4 4 6 7 9 7 5 5 6 8 9 11 12 12 12 10 6 7 8 7 6 5 6 5 6 5 5 5 6 5 4 4 4 3 2 2 2 2 2 1 2 2 2 3 3 4 4 4 2 3 5 5 3
2 3 1 2 3 1 4 2 1 4 6 5 4 1 2 0 2 5 8 8 8 4 6 1 3 3 5 3 3 4 4 5 5 4 3 4 4 4 3 5 6 6 5 5 4 5 5 5 5 6 8 7 7 8 9 9 9 8 11 6 3 7 10 6 7 7 6 5 4 5 6 6 6 5 5 5 4 4 4 3 3 3 4 4 3 3 1 1 2 3 2 2 3 2 3 2 2
5 4 2 6 6 4 5 3 1 2 4 4 5 3 5 4 3 4 6 7 7 6 6 2 1 3 5 3 4 3 4 5 5 4 3 3 4 5 7 6 4 5 5 5 5 4 4 3 3 4 4 6 9 8 8 9 7 7 12 9 10 11 9 8 6 7 7 6 4 4 4 3 8 6 7 6 6 4 3 3 3 3 3 3 3 3 3 2 3 3 2 2 3 3 3 3 2
Wind_Direction
223 275 246 173 109 141 99 6 146 299 82 256 300 199 256 242 278 342 273 332 313 251 173 28 19 342 191 193 157 132 200 149 203 142 213 242 97 132 109 117 127 133 138 143 146 152 149 149 150 146 142 140 141 141 137 134 129 126 124 121 118 117 117 117 117 118 121 124 125 125 125 126 126 124 122 121 122 124 123 124 124 125 123 120 117 115 112 109 108 109 110 112 114 116 116 116 116
233 288 229 195 147 87 189 126 96 348 38 0 248 131 249 281 31 224 277 233 204 293 76 98 83 78 68 92 121 130 45 20 149 133 110 115 103 88 115 126 137 137 136 142 145 147 150 153 152 147 144 142 142 142 137 135 132 128 126 123 121 120 120 119 120 121 122 123 123 121 119 119 120 119 118 117 116 120 123 123 125 124 122 120 118 118 117 114 111 109 112 113 112 114 116 116 115
239 127 130 96 29 87 110 36 247 76 137 227 267 213 313 346 168 302 276 252 35 76 74 47 134 68 66 79 44 64 207 39 95 145 96 123 131 150 126 128 129 132 137 141 146 149 150 154 152 146 143 142 143 142 138 135 132 131 128 125 123 122 122 123 124 125 124 122 120 117 115 116 116 117 117 117 119 122 124 124 123 122 123 121 120 121 119 116 115 115 116 118 118 117 118 119 120
111 171 169 89 153 18 82 30 85 131 158 217 306 264 214 180 170 279 328 153 117 114 5 16 36 290 126 67 131 47 64 104 107 123 131 163 158 131 131 127 129 130 132 143 147 150 150 154 151 147 146 145 145 144 141 136 133 133 130 126 125 126 126 126 125 124 123 121 118 116 115 115 116 117 120 121 122 125 125 125 123 124 123 122 120 119 118 116 116 117 118 119 118 119 121 123 121
182 299 116 114 114 333 113 181 145 103 215 196 198 272 219 226 154 342 357 270 220 73 23 55 41 343 110 122 126 103 220 93 119 140 110 84 111 130 126 128 130 136 138 139 143 148 152 154 150 149 150 148 147 144 142 137 135 134 132 129 129 128 128 126 125 124 123 121 120 118 117 117 117 119 122 124 128 131 129 127 127 124 116 116 119 122 120 116 116 118 118 119 120 120 120 119 122
60 37 0 100 264 185 63 79 197 202 225 132 259 257 207 192 202 58 318 277 283 23 111 83 158 259 5 11 20 94 1 119 147 90 135 149 133 137 130 130 133 134 139 141 142 146 155 153 152 152 153 151 149 146 144 141 137 135 134 133 131 130 129 127 126 127 127 126 123 120 118 118 117 120 125 127 130 132 129 120 116 118 120 121 125 125 119 116 117 118 121 122 118 116 112 111 115
219 54 353 33 21 54 166 159 213 214 263 165 247 284 291 253 191 102 308 322 294 54 28 70 117 108 79 337 36 51 3 156 170 122 94 131 125 126 129 126 127 129 134 141 145 150 155 155 154 154 154 153 150 148 145 142 140 138 138 135 132 130 129 130 130 133 131 128 125 122 121 122 123 122 123 127 131 133 130 128 125 124 125 127 127 125 121 119 117 117 120 123 123 119 113 109 104
313 133 268 107 208 61 149 211 242 152 272 177 238 265 278 283 227 134 242 146 260 195 78 102 52 98 264 285 132 317 20 27 104 104 109 119 121 119 118 124 122 126 128 135 142 152 158 157 156 156 153 154 153 151 146 142 140 141 141 138 132 130 131 133 135 134 131 127 126 128 129 128 126 123 120 121 125 127 129 129 126 126 128 128 128 126 122 117 116 117 118 120 120 119 117 113 108
341 86 306 78 122 37 55 219 248 235 283 283 269 246 267 268 283 192 183 225 318 124 156 118 134 95 187 63 55 54 37 59 95 104 114 116 121 121 120 124 129 130 125 135 142 148 151 156 155 153 152 153 155 151 148 146 146 145 141 137 132 131 133 134 132 129 127 129 133 134 133 128 124 122 121 120 120 123 127 130 130 129 130 130 129 125 121 120 118 116 116 118 119 119 118 115 111
29 120 231 156 126 205 357 291 148 237 213 236 247 280 280 286 282 176 189 169 189 142 139 83 72 110 139 104 116 325 80 106 107 112 127 129 130 130 129 131 133 133 134 132 134 148 145 154 160 151 154 156 155 153 152 150 148 143 138 133 131 133 132 131 127 124 127 135 136 133 128 125 122 121 120 119 119 119 122 127 129 130 131 130 126 126 126 124 122 119 115 116 118 121 119 119 116
208 10 130 84 53 174 209 270 261 306 269 289 283 250 253 266 231 218 179 162 160 144 127 129 66 120 130 113 72 360 134 134 125 133 135 131 125 129 118 118 118 125 133 142 147 153 145 148 159 162 159 157 158 155 151 149 147 140 135 130 133 133 131 127 125 129 137 140 135 129 128 128 123 121 120 121 121 120 121 122 125 126 126 126 126 126 125 124 124 121 113 106 105 110 116 121 119
52 257 25 116 190 167 233 189 277 275 284 313 277 280 222 268 116 123 145 131 153 122 151 160 172 149 89 130 138 167 145 135 132 136 133 121 114 110 114 115 120 125 131 130 129 129 123 157 165 158 160 153 154 149 140 145 143 140 132 134 137 135 129 127 132 143 147 139 132 131 133 130 127 127 129 127 126 125 125 124 124 126 128 128 127 125 124 122 122 119 108 106 104 105 111 118 120
131 107 87 103 226 143 185 278 254 292 330 293 265 300 355 335 144 160 142 110 127 127 124 212 150 154 108 157 127 139 146 138 130 131 124 112 110 110 120 118 118 124 128 122 122 121 126 142 156 150 149 159 143 152 151 153 151 139 134 142 141 133 131 137 148 154 146 137 139 141 134 134 135 134 131 131 132 134 135 133 130 129 130 129 127 126 124 124 122 120 113 107 99 96 94 111 120
115 180 136 205 58 132 146 212 286 18 306 256 271 286 342 8 1 127 128 96 126 116 271 154 134 124 76 104 121 178 162 143 137 126 118 107 105 111 122 123 120 120 121 125 129 122 125 133 143 162 149 149 156 155 160 155 135 129 161 151 138 136 141 150 154 149 144 147 148 141 136 136 137 135 133 136 140 141 139 135 131 130 129 129 129 129 128 128 129 127 116 107 99 98 98 96 114
250 144 83 117 75 96 268 105 179 130 270 255 285 349 347 14 114 60 69 125 198 241 66 47 176 58 198 171 198 205 174 154 139 121 112 109 107 108 106 119 117 113 108 103 107 125 133 138 137 145 140 129 162 163 154 141 137 159 166 152 142 141 145 153 154 153 152 154 147 140 140 139 140 139 143 145 142 143 141 138 137 134 132 130 129 131 130 133 135 132 125 105 101 102 98 93 107
152 83 87 121 186 147 249 188 151 99 264 207 295 349 8 7 40 68 313 128 139 47 79 184 58 163 246 173 275 168 149 138 115 107 112 111 110 107 109 116 120 115 115 114 107 61 47 92 113 96 108 130 150 146 122 124 150 156 160 150 145 146 154 157 158 154 148 142 143 143 134 134 133 142 150 149 150 150 146 144 143 138 136 134 135 134 136 138 140 138 126 99 95 93 85 85 86
75 82 27 38 195 156 222 180 137 216 257 285 297 22 38 325 345 86 295 108 125 165 49 298 298 14 170 208 161 127 134 125 115 118 118 121 122 121 119 120 129 133 143 129 122 137 119 100 98 127 134 132 117 110 104 133 137 167 165 145 142 152 157 158 155 148 133 128 96 89 63 60 54 46 65 108 151 138 150 146 147 147 142 141 142 142 141 144 144 141 132 98 89 84 80 78 72
64 119 117 240 199 145 204 188 187 175 279 296 333 7 41 27 14 85 33 35 43 43 42 320 29 32 82 55 109 126 134 132 140 138 140 136 136 135 140 146 148 154 148 142 146 111 107 100 95 98 114 114 75 86 148 141 157 174 112 124 131 138 131 137 129 101 100 78 93 82 76 87 77 39 312 121 83 97 137 154 151 151 149 148 147 145 143 145 146 149 138 111 100 92 93 82 64
113 117 106 220 182 237 163 211 219 154 272 272 294 341 349 294 150 236 78 313 9 53 342 6 63 30 66 94 118 131 144 145 150 154 149 153 157 158 156 152 150 142 153 132 68 91 97 102 95 107 120 92 118 146 150 147 156 155 136 117 124 134 140 100 84 94 75 93 100 106 107 104 122 178 186 131 88 77 65 150 163 156 158 155 150 149 149 153 153 156 140 121 109 110 84 90 86
224 121 241 250 210 239 251 234 260 198 286 311 315 308 353 288 95 247 134 165 30 183 157 10 93 137 127 125 131 139 149 153 160 157 156 158 162 161 161 164 165 168 152 105 111 111 112 124 126 145 82 78 131 114 167 174 168 152 136 120 111 116 108 114 112 107 109 116 123 132 149 124 136 203 197 172 126 66 23 26 358 186 168 159 153 147 153 155 157 156 145 108 96 77 92 81 90
269 107 184 228 204 158 266 227 244 261 217 277 269 321 338 285 182 99 150 100 271 265 241 179 185 166 153 149 141 147 156 163 166 162 156 159 167 174 176 176 166 140 101 92 118 132 153 142 134 99 101 177 152 97 220 221 155 117 112 119 122 124 108 127 135 122 138 137 146 153 161 126 142 209 196 73 95 103 49 31 13 35 43 124 139 104 109 122 111 98 69 87 92 115 98 84 84
107 210 190 175 147 240 248 213 235 236 152 200 304 339 278 313 54 133 152 142 218 211 218 217 175 155 153 156 158 158 166 169 168 163 166 168 171 176 163 73 46 54 84 127 154 152 172 132 94 101 127 25 88 164 226 266 25 89 109 124 129 134 143 162 161 161 160 137 152 161 145 116 153 200 139 113 100 120 111 52 51 40 37 75 112 108 95 91 97 100 102 98 105 93 77 93 98
253 311 231 200 193 230 254 171 243 147 299 273 317 282 6 48 160 236 181 179 230 229 248 167 142 167 159 149 149 161 170 171 171 176 172 166 119 45 33 40 42 79 100 206 114 125 84 95 111 136 155 168 193 157 304 143 102 76 127 141 148 156 164 173 176 166 167 152 150 156 149 152 176 190 178 144 140 111 88 95 81 62 73 81 93 112 102 103 115 112 107 120 111 78 76 68 79
162 250 343 307 173 228 266 281 303 289 289 267 217 339 319 300 335 137 222 253 272 291 339 117 123 138 151 154 166 166 167 168 175 168 122 65 65 77 69 65 44 56 102 77 26 36 169 189 168 166 151 166 127 138 222 172 165 148 144 158 151 171 174 189 194 177 168 163 159 165 166 165 169 178 168 150 142 122 105 93 98 100 104 110 114 113 122 117 128 121 121 103 81 78 86 55 52
213 274 258 266 168 241 261 264 281 263 259 263 323 309 272 217 227 113 240 301 315 28 111 113 120 133 139 152 159 161 165 161 149 115 86 94 89 81 95 104 111 106 86 53 63 77 312 282 232 136 152 138 104 150 217 155 138 138 171 157 162 181 182 198 190 158 161 166 167 165 164 160 146 167 193 172 142 122 112 110 101 119 135 143 121 116 128 137 134 120 125 109 104 100 102 74 115
209 225 226 293 291 280 268 299 268 247 265 211 67 255 269 264 204 201 229 263 102 108 103 122 125 134 149 159 164 166 161 151 133 113 106 108 105 87 62 82 95 93 71 84 103 118 10 333 277 345 91 34 95 156 221 151 158 162 182 176 168 181 187 193 194 183 168 162 171 175 190 174 165 170 191 152 121 100 118 117 115 88 120 130 129 136 119 134 138 125 105 105 91 78 58 33 92
172 211 218 240 259 305 315 213 274 258 225 155 179 253 291 335 129 287 304 172 116 95 108 125 135 143 147 150 149 153 150 159 149 125 104 110 119 124 119 107 127 152 139 133 124 71 64 15 359 356 11 130 119 160 192 209 175 184 187 171 186 182 169 183 199 207 164 164 164 173 197 198 147 133 139 116 86 103 118 123 111 96 31 214 158 133 125 124 131 126 131 126 103 70 64 61 68
174 193 309 278 296 269 243 299 271 99 283 186 182 238 47 332 70 223 204 158 129 120 125 134 136 140 143 143 150 148 154 134 104 118 128 128 135 137 139 146 160 165 158 157 149 127 113 139 76 20 3 339 176 156 197 204 196 201 187 177 194 130 145 162 175 182 210 191 149 172 193 201 129 127 131 116 107 107 117 107 80 52 349 323 310 165 123 115 117 112 103 85 78 83 73 55 49
246 146 297 293 359 350 247 198 248 160 249 149 170 93 5 352 219 274 175 128 124 123 131 136 133 132 139 147 148 156 155 120 120 130 152 138 137 139 146 175 162 172 172 96 139 131 140 171 115 125 85 356 294 207 199 201 198 192 180 201 202 165 135 145 161 180 203 202 151 154 184 163 107 124 126 128 136 161 147 114 138 165 175 204 236 178 124 112 99 86 59 69 76 86 78 58 48
62 48 159 333 1 341 301 270 57 137 267 133 137 260 272 257 247 314 203 127 116 118 137 145 144 146 155 156 158 146 115 113 152 160 151 144 146 146 153 176 162 175 147 130 160 140 154 124 127 154 166 214 258 220 196 196 188 188 176 211 207 80 124 128 164 165 194 186 152 134 123 89 100 129 133 125 131 147 116 114 161 179 199 190 193 151 117 119 111 103 98 73 59 63 66 53 38
204 265 65 41 18 287 286 58 358 149 197 165 92 220 285 271 275 253 225 158 143 145 151 150 152 159 162 166 162 140 97 133 172 163 153 150 154 158 142 154 173 144 133 139 174 150 138 145 141 177 178 192 244 236 204 187 174 169 178 119 70 105 67 60 59 103 136 111 113 121 92 101 104 140 145 125 150 139 142 139 127 106 78 40 359 354 120 103 116 117 120 97 82 70 70 57 53
25 72 295 321 130 274 302 281 192 182 323 124 127 252 225 257 255 266 180 161 141 146 156 160 162 162 171 177 169 135 136 148 165 173 166 166 166 148 146 162 163 162 170 167 157 164 154 166 164 171 176 186 226 233 210 178 159 158 143 131 129 107 101 111 152 166 161 157 153 105 90 114 116 130 141 128 135 152 160 134 117 101 88 108 140 219 67 105 109 105 122 141 115 93 96 102 118
355 88 255 275 35 265 342 294 200 231 254 90 164 202 320 302 286 250 193 154 151 147 164 163 165 170 175 192 168 146 141 186 200 181 180 178 186 150 157 157 171 179 164 165 168 208 143 155 154 149 172 189 229 250 244 41 60 76 86 97 110 111 123 115 125 75 70 84 86 94 110 116 119 126 123 129 140 149 126 93 90 106 129 138 148 85 71 48 103 114 75 54 129 127 110 112 122
321 12 147 210 175 333 306 304 323 202 152 238 233 165 227 220 312 153 153 157 147 158 169 174 172 173 186 173 172 160 175 194 202 186 189 193 183 172 169 168 173 175 166 165 159 216 165 150 159 154 177 183 213 206 170 110 94 77 64 81 96 94 105 151 152 55 45 48 68 93 104 114 121 120 115 123 118 119 111 104 103 94 99 113 87 79 79 119 81 114 102 31 80 110 125 115 121
215 350 15 329 329 244 250 30 271 57 14 207 6 203 248 261 305 209 172 154 157 173 178 181 172 175 177 185 179 182 193 209 205 178 189 191 187 179 165 169 172 175 163 166 157 164 184 151 144 160 162 174 184 152 122 112 105 76 68 80 86 99 114 101 107 70 69 72 79 99 109 115 113 122 117 129 119 117 107 110 110 90 88 86 97 100 62 54 89 90 111 98 58 97 133 125 148
153 163 189 178 283 290 249 242 264 192 256 239 210 212 221 234 256 218 191 156 154 150 132 177 209 180 171 178 189 207 208 218 175 173 184 177 187 163 156 172 189 162 144 145 145 163 181 151 145 157 163 159 150 141 140 126 109 115 111 107 94 85 99 116 89 100 96 91 98 108 108 121 129 140 130 123 116 113 106 114 114 109 110 108 110 101 92 108 128 110 108 119 116 94 72 103 120
105 100 127 215 220 279 277 272 261 143 177 227 215 224 116 213 215 199 171 132 134 148 171 176 197 192 186 178 199 222 211 209 172 172 184 177 179 162 154 162 164 136 147 148 159 171 185 160 151 158 161 156 151 151 152 146 134 125 89 105 132 287 118 122 91 68 64 72 89 100 115 112 116 121 126 128 132 120 113 121 109 98 98 104 116 130 133 129 126 119 107 87 102 101 86 120 132
140 144 246 295 188 256 240 242 353 321 169 274 231 212 185 224 251 213 165 151 177 178 172 186 191 197 193 180 207 223 175 122 135 146 187 171 143 141 143 158 164 163 180 163 167 175 180 163 162 155 155 160 156 156 154 157 166 167 151 163 141 83 30 22 39 12 47 79 90 93 97 103 110 112 126 125 121 117 133 120 103 118 118 96 80 72 92 115 100 80 94 83 62 100 104 86 55
59 193 200 265 275 245 281 288 329 308 157 263 119 178 277 249 333 252 179 182 197 188 182 188 174 185 193 196 207 220 140 169 156 172 191 175 143 148 158 173 197 190 166 166 167 167 173 181 167 153 157 151 149 142 139 142 121 103 118 151 135 92 47 50 80 40 40 44 49 81 111 125 118 100 114 125 125 120 118 117 125 112 115 118 116 130 125 104 99 116 100 115 98 58 92 79 59
126 100 105 226 235 36 303 290 339 348 67 304 148 115 19 326 290 290 280 266 322 152 135 147 188 183 191 200 204 220 193 167 186 182 187 187 159 152 160 170 188 174 164 162 166 179 175 183 168 157 152 140 137 134 117 106 100 86 75 99 78 90 110 64 58 42 46 45 31 30 40 50 101 124 133 122 114 121 126 124 124 122 130 136 141 142 139 145 146 117 105 117 124 115 79 72 42
284 177 161 242 260 239 170 270 335 312 42 93 76 45 9 6 53 3 18 330 51 112 147 169 214 226 202 165 223 214 192 183 201 184 181 189 174 157 164 172 167 174 180 182 178 181 179 184 176 159 145 140 133 127 121 119 109 89 88 71 73 72 49 43 49 37 32 62 55 25 5 28 59 69 70 91 110 115 120 127 122 121 118 127 122 122 148 157 155 154 149 138 161 147 134 128 81
304 230 193 206 196 247 256 330 18 26 342 12 86 51 318 301 293 263 289 21 151 247 171 208 203 192 196 214 222 200 181 168 188 214 203 182 155 145 147 159 176 184 185 191 187 181 178 179 166 148 127 126 126 130 130 127 126 126 114 103 87 76 76 62 95 109 60 48 65 29 26 24 31 57 71 91 100 108 107 116 115 113 109 102 119 147 148 126 150 153 171 154 164 127 136 135 114
81 269 200 206 179 194 313 347 88 10 102 331 24 128 267 326 81 55 322 10 227 348 220 201 196 204 212 229 234 210 201 193 168 174 168 159 164 153 166 174 183 186 193 185 186 182 182 174 154 149 135 122 120 127 128 123 123 127 129 132 138 144 138 261 351 29 96 71 66 68 71 42 33 63 63 72 84 91 94 90 95 105 118 128 140 139 156 170 167 163 153 156 163 132 121 128 133
228 245 129 119 128 168 184 101 123 184 244 291 43 87 128 86 290 199 293 95 99 280 251 223 216 212 215 223 228 221 209 197 182 170 186 178 170 175 179 183 185 189 184 182 186 184 184 171 139 138 133 117 118 131 128 134 131 125 111 109 123 133 136 142 106 72 49 70 63 36 58 54 62 70 96 89 96 106 109 108 118 124 126 144 146 158 165 161 124 128 160 141 120 133 137 131 140
218 192 145 145 162 142 119 87 114 270 132 275 329 351 72 270 270 338 56 90 344 269 255 240 222 220 226 226 227 225 218 197 145 169 191 181 173 172 166 185 191 182 183 190 183 83 44 43 40 19 13 61 126 140 137 140 134 136 129 127 106 64 105 101 81 58 64 50 67 27 52 41 45 48 58 90 90 101 106 118 120 120 121 123 114 112 103 122 138 139 132 126 130 109 123 141 136
260 153 94 85 70 63 95 92 71 342 67 279 293 0 139 279 285 341 331 102 215 237 230 230 225 220 217 221 229 228 222 186 148 169 182 176 151 148 158 133 170 194 174 85 54 59 65 77 81 66 38 8 341 130 126 116 122 125 126 130 127 125 111 85 84 82 68 67 77 49 54 54 50 58 47 54 76 70 87 93 93 99 110 109 90 97 95 86 78 78 83 102 104 94 73 108 127
124 104 68 23 40 27 19 62 82 63 28 265 254 304 148 290 259 157 112 186 213 265 300 273 247 236 231 229 223 219 214 186 158 151 148 109 78 89 92 106 72 28 69 72 81 100 121 124 131 119 104 61 28 4 26 86 103 126 136 140 136 136 137 130 116 94 99 84 93 56 63 63 55 66 66 61 68 79 79 75 92 93 84 85 93 97 100 107 98 99 94 93 95 109 111 107 98
122 70 111 54 354 10 30 346 39 91 276 259 279 265 117 154 310 33 250 298 269 230 251 238 223 220 218 212 212 214 207 167 147 122 94 89 68 60 54 41 16 10 22 84 121 119 122 145 135 121 101 93 74 66 55 28 22 29 107 139 142 147 148 143 139 147 146 131 126 100 65 78 51 51 51 78 68 69 85 79 74 78 79 88 88 97 99 100 100 97 93 96 97 97 104 102 108
78 77 51 118 238 43 245 4 231 177 177 194 316 257 37 219 211 261 293 262 290 267 251 261 234 236 224 214 215 205 151 136 123 101 95 78 62 42 39 56 73 71 36 351 110 128 134 144 133 115 93 75 85 85 74 80 83 80 10 160 143 152 147 142 142 144 156 140 137 121 109 106 84 76 51 90 86 99 110 103 99 104 91 84 102 97 93 95 98 93 97 92 97 106 115 117 111
114 141 133 103 90 58 209 287 223 316 282 263 306 321 231 251 311 327 305 301 287 290 270 259 259 247 244 242 127 118 115 116 105 104 99 86 75 68 44 41 73 152 134 162 257 116 135 143 132 93 109 164 151 138 137 107 88 82 89 78 185 147 149 145 147 148 160 145 145 141 148 149 151 156 161 172 166 148 103 110 115 105 111 117 116 113 112 111 107 103 102 99 95 99 100 96 102
200 120 146 175 147 155 195 191 171 205 191 271 281 68 221 146 222 317 274 280 297 321 334 318 334 261 152 120 113 104 102 94 102 101 116 124 121 107 262 227 213 214 139 151 161 164 163 150 144 155 181 170 83 84 85 74 45 21 40 68 33 77 116 115 124 128 145 149 149 137 152 152 150 179 172 191 141 108 108 103 116 120 130 130 129 121 118 111 107 101 100 107 103 107 99 103 106
291 157 78 98 210 147 142 202 149 157 130 37 215 206 183 120 276 291 283 345 12 10 12 33 34 39 67 87 97 105 105 107 111 115 118 112 85 1 244 243 234 227 161 162 177 162 168 173 168 168 157 144 148 162 159 147 144 142 145 142 145 124 111 93 62 99 160 164 156 149 161 172 163 145 176 116 177 114 131 123 113 130 137 133 128 128 128 120 121 113 113 117 119 137 115 111 120
232 102 182 210 138 104 92 61 45 94 59 189 279 317 320 301 41 351 356 26 4 15 18 27 47 50 70 70 64 75 99 119 136 147 153 148 176 203 220 221 222 202 178 178 179 178 163 158 154 135 146 168 172 172 165 151 140 104 103 96 45 101 103 83 302 246 189 163 158 154 156 167 133 113 108 66 344 43 146 132 136 140 146 130 116 114 117 119 122 120 126 126 127 136 118 124 127
95 164 233 171 119 117 122 151 339 58 143 240 25 331 307 31 204 335 5 12 352 4 10 7 23 44 51 27 79 95 75 53 30 10 4 309 212 235 251 270 267 223 198 173 170 173 166 163 158 154 167 176 186 161 152 138 104 97 97 91 285 352 294 173 215 243 176 158 157 142 125 136 159 145 116 95 68 28 358 81 112 123 69 81 101 85 91 102 101 101 116 117 133 134 120 122 128
151 200 161 113 211 171 338 98 84 110 239 270 352 302 281 150 278 358 336 334 317 329 346 5 19 32 30 3 357 23 46 60 39 25 16 11 32 21 8 334 317 276 221 185 150 150 161 172 172 168 177 183 169 140 112 106 123 109 105 127 222 200 211 232 187 202 177 175 172 169 167 161 130 136 135 126 113 91 57 57 55 98 100 119 98 115 111 108 107 106 101 105 94 106 116 124 138
31 86 70 317 103 152 128 198 161 118 192 86 260 49 177 235 279 325 292 303 297 308 331 343 342 63 37 16 358 39 35 49 44 43 27 5 38 28 18 3 350 343 10 65 109 130 154 172 179 187 171 136 115 119 135 153 159 154 157 177 195 224 237 198 199 187 181 187 181 174 163 149 168 152 149 144 145 155 147 126 108 138 147 141 149 138 126 128 109 122 127 124 117 102 122 135 137
33 44 339 17 34 211 102 39 76 157 159 171 157 339 281 333 274 290 292 294 296 275 271 284 321 66 77 19 19 28 51 50 34 31 16 29 36 29 21 23 22 21 42 63 78 116 134 150 172 178 170 157 146 151 164 168 160 164 155 164 169 263 254 235 197 190 181 182 183 171 189 174 138 163 152 157 166 170 167 158 153 163 175 176 178 169 131 110 114 104 66 74 80 45 84 58 71
140 145 171 165 121 125 133 208 46 72 103 192 123 220 262 266 307 288 297 302 295 277 219 163 18 32 49 39 36 25 62 48 47 28 16 17 30 33 31 26 35 48 41 50 53 72 87 131 167 162 155 163 161 168 175 172 161 142 153 173 182 222 251 263 236 200 184 168 170 198 168 175 169 178 169 168 175 170 163 159 158 169 175 185 183 180 155 129 135 126 126 117 139 125 115 113 82